Location: Laas
(43.4693°N, 0.3073°E)
Time: 15:57:58
(UTC+00:00)

Cosmos 1697 Rocket - Pass Details

Date: 25 October 2020
Orbit: 831 x 845 km, 71.0° (Epoch: 24 November)

Event Time Altitude Azimuth Distance (km) Brightness Sun altitude
Rises 19:52:56 0° 220° (SW) 3,364 6.1 -32.0°
Reaches altitude 10° 19:55:27 10° 226° (SW) 2,435 5.4 -32.4°
Enters shadow 20:00:44 48° 297° (WNW) 1,082 3.5 -33.4°
